Location: ???????
(55.5931°N, 39.3286°E)
Time: 13:20:49
(UTC+00:00)

CZ-4 R/B - Pass Details

Date: 14 April 2024
Orbit: 677 x 749 km, 98.6° (Epoch: 23 May)

Event Time Altitude Azimuth Distance (km) Brightness Sun altitude
Rises 01:21:32 0° 14° (NNE) 3,140 7.9 -8.3°
Reaches altitude 10° 01:23:51 10° 11° (NNE) 2,204 7.0 -8.1°
Maximum altitude 01:28:36 61° 293° (WNW) 801 4.0 -7.5°
Drops below altitude 10° 01:33:14 10° 213° (SSW) 2,146 5.8 -6.9°
Enters shadow 01:34:30 - 211° (SSW) 2,663 6.3 -6.7°
